Paynesville, MN

9:46 PM CDT on April 30, 2017 (GMT -0500)
Paynesville

Weather History for KPEX - July, 2013

Change the Weather History Date:

Thursday, July 25, 2013

  Actual Average (KLJF) Record (KLJF)
Temperature  
Mean Temperature 67 °F -  
Max Temperature 77 °F 83 °F 94 °F (1966)
Min Temperature 57 °F 60 °F 51 °F (1988)
Cooling Degree Days 2    
Growing Degree Days 17 (Base 50)    
Moisture  
Dew Point 60 °F    
Average Humidity 79    
Maximum Humidity 98    
Minimum Humidity 49    
Precipitation  
Precipitation 0.18 in - - ()
Sea Level Pressure  
Sea Level Pressure 29.96 in    
Wind  
Wind Speed 4 mph (West)    
Max Wind Speed 14 mph    
Max Gust Speed 29 mph    
Visibility 9 miles    
Events Rain , Thunderstorm    
Averages and records for this station are not official NWS values.
T = Trace of Precipitation, MM = Missing Value Source: NWS Daily Summary

Daily Weather History Graph

Daily Weather History Graph

Search for Another Location

Airport or City:

Trip Planner

Search our weather history database for the weather conditions in past years. The results will help you decide how hot, cold, wet, or windy it might be!

Date:

Astronomy

Jul. 25, 2013 Rise Set
Actual Time 5:55 AM CDT 8:54 PM CDT
Civil Twilight 5:20 AM CDT 9:29 PM CDT
Nautical Twilight 4:35 AM CDT 10:14 PM CDT
Astronomical Twilight 3:42 AM CDT 11:07 PM CDT
Moon 10:20 PM CDT (7/25) 9:39 AM CDT (7/25)
Length of Visible Light 16h 08m
Length of Day
14h 58m
Waning Gibbous, 88% of the Moon is Illuminated
Jul 25
Waning Gibbous
Jul 29
Last Quarter
Aug 6
New
Aug 14
First Quarter
Aug 20
Full

Hourly Weather History & Observations

Time (CDT) Temp. Dew Point Humidity Pressure Visibility Wind Dir Wind Speed Gust Speed Precip Events Conditions
12:12 AM 67.8 °F 54.9 °F 63% 29.97 in 10.0 mi SSW 6.9 mph - N/A   Scattered Clouds
12:33 AM 66.4 °F 56.8 °F 71% 29.98 in 10.0 mi SSW 5.8 mph - N/A Rain Light Rain
12:53 AM 65.8 °F 59.2 °F 79% 29.98 in 7.0 mi SSW 13.8 mph 28.8 mph 0.09 in Rain , Thunderstorm Rain
1:13 AM 65.7 °F 59.9 °F 82% 29.98 in 10.0 mi NE 5.8 mph - N/A   Overcast
1:32 AM 65.1 °F 59.2 °F 81% 29.98 in 10.0 mi Calm Calm - N/A Thunderstorm Scattered Clouds
1:53 AM 62.4 °F 59.9 °F 91% 29.97 in 10.0 mi Calm Calm - N/A Thunderstorm Clear
2:13 AM 62.6 °F 59.5 °F 90% 29.96 in 10.0 mi Calm Calm - N/A   Clear
2:33 AM 61.9 °F 58.6 °F 89% 29.96 in 10.0 mi Calm Calm - N/A   Clear
2:53 AM 60.6 °F 58.6 °F 93% 29.95 in 10.0 mi Calm Calm - N/A   Clear
3:13 AM 59.5 °F 58.1 °F 95% 29.95 in 10.0 mi Calm Calm - N/A   Clear
3:33 AM 59.9 °F 58.6 °F 96% 29.95 in 10.0 mi Calm Calm - N/A   Clear
3:53 AM 59.0 °F 57.7 °F 96% 29.95 in 7.0 mi Calm Calm - N/A   Scattered Clouds
4:13 AM 57.9 °F 56.7 °F 96% 29.96 in 7.0 mi Calm Calm - N/A   Clear
4:33 AM 57.7 °F 56.8 °F 97% 29.96 in 7.0 mi WSW 3.5 mph - N/A   Clear
4:53 AM 58.3 °F 57.6 °F 97% 29.96 in 7.0 mi West 4.6 mph - N/A   Scattered Clouds
5:13 AM 59.0 °F 58.3 °F 97% 29.96 in 7.0 mi WSW 3.5 mph - N/A   Mostly Cloudy
5:33 AM 58.5 °F 57.6 °F 97% 29.96 in 7.0 mi West 5.8 mph - N/A   Scattered Clouds
5:53 AM 58.5 °F 57.7 °F 97% 29.96 in 7.0 mi West 3.5 mph - N/A   Mostly Cloudy
6:13 AM 58.6 °F 58.1 °F 98% 29.95 in 5.0 mi Calm Calm - N/A   Scattered Clouds
6:33 AM 59.5 °F 58.8 °F 97% 29.95 in 5.0 mi Calm Calm - N/A   Clear
6:53 AM 60.4 °F 59.7 °F 97% 29.95 in 5.0 mi Calm Calm - N/A   Clear
7:13 AM 61.9 °F 61.2 °F 97% 29.96 in 7.0 mi Calm Calm - N/A   Clear
7:33 AM 62.6 °F 61.7 °F 97% 29.96 in 7.0 mi Calm Calm - N/A   Clear
7:53 AM 64.0 °F 63.1 °F 97% 29.96 in 10.0 mi Calm Calm - N/A   Clear
8:13 AM 65.1 °F 63.5 °F 94% 29.96 in 10.0 mi Calm Calm - N/A   Clear
8:33 AM 66.2 °F 63.9 °F 92% 29.97 in 10.0 mi Calm Calm - N/A   Clear
8:53 AM 68.0 °F 63.7 °F 86% 29.97 in 10.0 mi West 3.5 mph - N/A   Clear
9:13 AM 68.9 °F 63.9 °F 84% 29.97 in 10.0 mi Calm Calm - N/A   Clear
9:33 AM 69.4 °F 63.7 °F 82% 29.97 in 10.0 mi Calm Calm - N/A   Clear
9:53 AM 69.8 °F 63.7 °F 81% 29.96 in 10.0 mi Calm Calm - N/A   Scattered Clouds
10:13 AM 70.5 °F 61.9 °F 74% 29.97 in 10.0 mi SW 3.5 mph - N/A   Scattered Clouds
10:33 AM 70.7 °F 62.8 °F 76% 29.97 in 10.0 mi SW 3.5 mph - N/A   Scattered Clouds
10:53 AM 71.6 °F 63.0 °F 74% 29.98 in 10.0 mi Calm Calm - N/A   Scattered Clouds
11:13 AM 71.6 °F 63.3 °F 75% 29.99 in 10.0 mi WSW 4.6 mph - N/A   Scattered Clouds
11:33 AM 72.7 °F 62.1 °F 69% 30.00 in 10.0 mi West 8.1 mph - N/A   Scattered Clouds
11:53 AM 73.2 °F 61.5 °F 67% 30.00 in 10.0 mi West 8.1 mph - N/A   Scattered Clouds
12:13 PM 72.9 °F 59.7 °F 63% 30.00 in 10.0 mi West 5.8 mph - N/A   Mostly Cloudy
12:33 PM 72.7 °F 59.9 °F 64% 30.01 in 10.0 mi West 11.5 mph 16.1 mph N/A   Mostly Cloudy
12:52 PM 71.6 °F 59.7 °F 66% 30.01 in 10.0 mi WNW 6.9 mph - N/A   Mostly Cloudy
1:13 PM 66.6 °F 60.4 °F 81% 30.03 in 7.0 mi West 10.4 mph - 0.01 in Rain Light Rain
1:32 PM 64.2 °F 60.1 °F 86% 30.03 in 4.0 mi WNW 8.1 mph 20.7 mph 0.04 in Rain Rain
1:53 PM 63.0 °F 60.4 °F 91% 30.02 in 7.0 mi WNW 4.6 mph - 0.09 in Rain Light Rain
2:13 PM 63.7 °F 60.8 °F 90% 30.00 in 10.0 mi Calm Calm - N/A Rain Light Rain
2:33 PM 64.9 °F 61.7 °F 89% 29.98 in 10.0 mi Calm Calm - N/A   Mostly Cloudy
2:53 PM 66.2 °F 62.1 °F 86% 29.96 in 10.0 mi Calm Calm - N/A   Overcast
3:12 PM 68.5 °F 62.1 °F 80% 29.96 in 10.0 mi NNW 3.5 mph - N/A   Mostly Cloudy
3:33 PM 71.4 °F 62.1 °F 72% 29.96 in 10.0 mi West 4.6 mph - N/A   Clear
3:53 PM 74.3 °F 63.3 °F 68% 29.95 in 10.0 mi West 5.8 mph - N/A   Clear
4:13 PM 75.6 °F 61.9 °F 62% 29.95 in 10.0 mi West 9.2 mph - N/A   Clear
4:33 PM 76.8 °F 60.8 °F 58% 29.94 in 10.0 mi West 13.8 mph - N/A   Scattered Clouds
4:53 PM 76.8 °F 60.1 °F 56% 29.94 in 10.0 mi West 10.4 mph - N/A   Scattered Clouds
5:13 PM 77.4 °F 58.1 °F 51% 29.94 in 10.0 mi WNW 11.5 mph 17.3 mph N/A   Clear
5:33 PM 77.4 °F 57.6 °F 50% 29.94 in 10.0 mi WNW 8.1 mph - N/A   Clear
5:53 PM 77.0 °F 57.7 °F 51% 29.94 in 10.0 mi West 8.1 mph - N/A   Clear
6:13 PM 77.0 °F 56.8 °F 50% 29.94 in 10.0 mi WNW 9.2 mph - N/A   Clear
6:33 PM 77.0 °F 56.3 °F 49% 29.93 in 10.0 mi West 10.4 mph - N/A   Clear
6:53 PM 76.3 °F 56.5 °F 50% 29.93 in 10.0 mi West 8.1 mph - N/A   Clear
7:13 PM 75.6 °F 57.4 °F 53% 29.93 in 10.0 mi West 5.8 mph - N/A   Clear
7:33 PM 73.8 °F 58.8 °F 59% 29.93 in 10.0 mi West 3.5 mph - N/A   Scattered Clouds
7:53 PM 73.4 °F 59.5 °F 62% 29.93 in 10.0 mi WSW 4.6 mph - N/A   Mostly Cloudy
8:12 PM 72.3 °F 59.0 °F 63% 29.93 in 10.0 mi West 3.5 mph - N/A   Scattered Clouds
8:33 PM 70.0 °F 61.0 °F 73% 29.94 in 10.0 mi Calm Calm - N/A   Mostly Cloudy
8:53 PM 69.4 °F 62.4 °F 78% 29.94 in 10.0 mi Calm Calm - N/A   Overcast
9:13 PM 69.8 °F 61.7 °F 75% 29.94 in 10.0 mi Calm Calm - N/A   Overcast
9:33 PM 69.1 °F 62.1 °F 78% 29.94 in 10.0 mi Calm Calm - N/A   Overcast
9:53 PM 67.8 °F 61.7 °F 81% 29.94 in 10.0 mi West 3.5 mph - N/A   Overcast
10:13 PM 66.4 °F 61.0 °F 83% 29.95 in 10.0 mi West 4.6 mph - N/A   Mostly Cloudy
10:33 PM 66.6 °F 60.8 °F 82% 29.96 in 10.0 mi West 3.5 mph - N/A   Mostly Cloudy
10:53 PM 64.9 °F 60.8 °F 86% 29.96 in 10.0 mi West 4.6 mph - N/A   Mostly Cloudy
11:13 PM 63.5 °F 60.1 °F 89% 29.96 in 10.0 mi West 3.5 mph - N/A   Scattered Clouds
11:33 PM 62.6 °F 59.9 °F 91% 29.96 in 10.0 mi Calm Calm - N/A   Scattered Clouds
11:53 PM 62.4 °F 60.1 °F 92% 29.96 in 10.0 mi Calm Calm - N/A   Mostly Cloudy